Total_Precipitation_Accumulation
0.31 0.41 0.42 0.39 0.40 0.41 0.45 0.56 0.62 0.54 0.53 0.64 0.76 0.85 0.95 0.96 0.96 0.85 0.68 0.67 0.61 0.55 0.50 0.47 0.48 0.52 0.59 0.63 0.67 0.74 0.81 0.85 0.93 1.10 1.32 1.53 1.71 1.88
0.39 0.45 0.51 0.51 0.51 0.51 0.52 0.60 0.73 0.71 0.66 0.67 0.75 0.76 0.76 0.62 0.64 0.64 0.61 0.63 0.55 0.50 0.48 0.45 0.42 0.43 0.46 0.50 0.54 0.56 0.58 0.60 0.60 0.63 0.71 0.82 0.97 1.21
0.38 0.44 0.48 0.55 0.62 0.63 0.68 0.70 0.73 0.84 0.78 0.66 0.77 0.86 0.78 0.60 0.51 0.51 0.53 0.53 0.51 0.50 0.47 0.46 0.44 0.43 0.42 0.41 0.45 0.48 0.48 0.49 0.48 0.47 0.48 0.50 0.50 0.53
0.36 0.46 0.50 0.51 0.57 0.65 0.76 0.79 0.81 0.93 0.92 0.78 0.85 0.94 0.85 0.74 0.61 0.53 0.44 0.43 0.44 0.48 0.47 0.48 0.47 0.44 0.42 0.40 0.38 0.37 0.37 0.36 0.38 0.37 0.36 0.35 0.34 0.35
0.34 0.42 0.50 0.58 0.61 0.65 0.75 0.79 0.85 1.00 1.04 0.96 0.96 1.06 1.09 0.88 0.66 0.51 0.42 0.42 0.39 0.43 0.45 0.47 0.47 0.44 0.40 0.39 0.40 0.36 0.32 0.30 0.28 0.28 0.29 0.30 0.31 0.31
0.35 0.39 0.43 0.55 0.64 0.69 0.76 0.88 0.96 1.04 1.12 1.10 1.13 1.24 1.24 1.10 0.84 0.57 0.48 0.45 0.43 0.39 0.42 0.42 0.43 0.41 0.38 0.34 0.33 0.33 0.33 0.33 0.30 0.26 0.24 0.23 0.24 0.23
0.26 0.33 0.34 0.39 0.49 0.61 0.69 0.79 0.96 1.12 1.27 1.33 1.34 1.50 1.45 1.25 0.99 0.70 0.58 0.52 0.49 0.46 0.43 0.37 0.35 0.33 0.31 0.31 0.30 0.30 0.29 0.28 0.29 0.29 0.27 0.24 0.22 0.21
0.22 0.28 0.29 0.29 0.32 0.38 0.48 0.62 0.77 0.94 1.15 1.34 1.46 1.56 1.62 1.47 1.26 1.02 0.71 0.53 0.48 0.50 0.48 0.46 0.42 0.38 0.34 0.30 0.31 0.29 0.29 0.27 0.25 0.25 0.26 0.28 0.26 0.23
0.23 0.26 0.21 0.18 0.26 0.30 0.35 0.42 0.52 0.64 0.79 1.01 1.20 1.31 1.49 1.60 1.46 1.17 0.89 0.69 0.55 0.53 0.52 0.48 0.47 0.45 0.42 0.38 0.40 0.34 0.30 0.29 0.27 0.24 0.24 0.24 0.26 0.26
0.24 0.27 0.27 0.25 0.27 0.33 0.37 0.37 0.37 0.40 0.48 0.59 0.76 1.00 1.21 1.42 1.47 1.36 1.26 1.01 0.78 0.63 0.57 0.50 0.44 0.42 0.43 0.41 0.41 0.37 0.34 0.33 0.31 0.30 0.28 0.27 0.26 0.26
0.27 0.31 0.35 0.32 0.26 0.23 0.31 0.33 0.32 0.32 0.32 0.40 0.53 0.75 1.00 1.18 1.35 1.34 1.24 1.10 0.90 0.67 0.55 0.48 0.41 0.39 0.39 0.36 0.36 0.37 0.35 0.36 0.36 0.34 0.33 0.32 0.31 0.30
0.39 0.41 0.38 0.32 0.28 0.20 0.26 0.31 0.29 0.29 0.32 0.33 0.39 0.51 0.66 0.91 1.11 1.13 1.04 0.97 0.86 0.67 0.50 0.44 0.38 0.38 0.40 0.31 0.26 0.27 0.29 0.35 0.40 0.40 0.39 0.37 0.36 0.29
0.44 0.44 0.45 0.36 0.28 0.22 0.23 0.28 0.25 0.29 0.37 0.40 0.40 0.48 0.59 0.74 0.93 1.02 1.01 0.87 0.76 0.62 0.48 0.44 0.40 0.36 0.32 0.27 0.24 0.24 0.24 0.24 0.28 0.34 0.40 0.45 0.43 0.34
0.53 0.56 0.56 0.46 0.36 0.30 0.24 0.22 0.22 0.24 0.35 0.40 0.43 0.45 0.51 0.59 0.75 0.97 1.07 1.00 0.83 0.70 0.64 0.56 0.45 0.39 0.31 0.23 0.21 0.22 0.26 0.27 0.25 0.25 0.31 0.44 0.50 0.49
0.57 0.68 0.68 0.55 0.50 0.44 0.35 0.27 0.25 0.24 0.31 0.39 0.37 0.39 0.43 0.52 0.67 0.93 1.15 1.26 1.13 0.91 0.80 0.68 0.57 0.50 0.42 0.30 0.21 0.18 0.22 0.26 0.26 0.25 0.26 0.31 0.37 0.42
0.53 0.65 0.71 0.72 0.68 0.61 0.51 0.39 0.30 0.30 0.32 0.38 0.42 0.45 0.53 0.61 0.71 0.77 0.97 1.14 1.19 1.08 0.90 0.78 0.66 0.61 0.53 0.39 0.27 0.20 0.17 0.19 0.22 0.25 0.28 0.29 0.33 0.39
0.59 0.76 0.90 0.95 0.97 0.91 0.77 0.63 0.52 0.47 0.43 0.44 0.52 0.56 0.61 0.63 0.66 0.69 0.80 0.92 0.92 0.88 0.84 0.81 0.78 0.70 0.67 0.57 0.38 0.25 0.19 0.16 0.17 0.22 0.27 0.31 0.35 0.39
0.46 0.71 0.98 1.09 1.13 1.12 1.02 0.85 0.73 0.64 0.59 0.57 0.60 0.61 0.60 0.64 0.67 0.71 0.74 0.81 0.81 0.75 0.74 0.72 0.76 0.76 0.70 0.67 0.52 0.34 0.24 0.19 0.17 0.20 0.24 0.29 0.32 0.36
0.32 0.53 0.82 1.04 1.13 1.18 1.13 0.96 0.80 0.75 0.77 0.72 0.68 0.66 0.63 0.62 0.67 0.72 0.73 0.77 0.80 0.76 0.70 0.70 0.68 0.66 0.60 0.52 0.47 0.36 0.28 0.24 0.23 0.22 0.23 0.25 0.26 0.29
0.29 0.44 0.69 0.95 1.06 1.12 1.10 1.04 0.93 0.89 0.87 0.82 0.76 0.72 0.68 0.65 0.63 0.65 0.67 0.69 0.72 0.78 0.71 0.65 0.59 0.53 0.48 0.45 0.41 0.38 0.31 0.30 0.30 0.27 0.25 0.26 0.29 0.35
0.38 0.44 0.59 0.81 0.96 1.04 1.04 1.01 0.96 0.93 0.92 0.90 0.84 0.79 0.73 0.71 0.67 0.61 0.64 0.69 0.71 0.74 0.67 0.52 0.50 0.55 0.63 0.65 0.58 0.46 0.37 0.34 0.39 0.37 0.32 0.31 0.33 0.36
0.48 0.49 0.56 0.71 0.87 0.97 0.98 0.95 0.96 0.94 0.93 0.91 0.87 0.83 0.75 0.72 0.71 0.68 0.67 0.68 0.64 0.62 0.65 0.65 0.66 0.68 0.66 0.59 0.51 0.50 0.45 0.40 0.43 0.49 0.44 0.37 0.31 0.29
0.58 0.55 0.58 0.69 0.78 0.88 0.89 0.86 0.88 0.93 0.92 0.89 0.86 0.84 0.79 0.75 0.74 0.73 0.70 0.71 0.70 0.70 0.77 0.83 0.79 0.69 0.61 0.59 0.54 0.53 0.53 0.48 0.45 0.42 0.37 0.35 0.31 0.28